When you browse on this site, cookies collect data to enhance your experience and personalize the content and advertising you see.
Visit our Privacy Policy to learn more. By continuing to use the site, you agree to this use of cookies and data.
  • In Österreich
  • Länderverzeichnis
  • Für 7 Tage
  • Wassertemperatur
  • Wetterkarte
  • News
  • Widgets
  • user-avatar
    Anmelden

    Stündliche Wetter Viedma

    Heute, 5 Juni, Freitag

    Zeit Temperatur Niederschläge Wind Luftdruck Luftfeuchtigkeit
    00:00 +9°C° 0 mm 6 m/S 758 mmHg 69%
    01:00 +8°C° 0 mm 6 m/S 758 mmHg 70%
    02:00 +8°C° 0 mm 6 m/S 757 mmHg 70%
    03:00 +8°C° 0 mm 6 m/S 757 mmHg 70%
    04:00 +8°C° 0 mm 6 m/S 757 mmHg 71%
    05:00 +8°C° 0 mm 6 m/S 757 mmHg 71%
    06:00 +6°C° 0 mm 7 m/S 757 mmHg 71%
    07:00 +6°C° 0 mm 7 m/S 757 mmHg 70%
    08:00 +6°C° 0 mm 7 m/S 758 mmHg 70%
    09:00 +9°C° 0 mm 7 m/S 758 mmHg 63%
    10:00 +10°C° 0 mm 8 m/S 758 mmHg 56%
    11:00 +12°C° 0 mm 8 m/S 758 mmHg 50%
    12:00 +13°C° 0 mm 8 m/S 757 mmHg 45%
    13:00 +16°C° 0 mm 8 m/S 757 mmHg 40%
    14:00 +17°C° 0 mm 8 m/S 757 mmHg 36%
    15:00 +16°C° 0 mm 7 m/S 757 mmHg 41%
    16:00 +15°C° 0 mm 6 m/S 757 mmHg 46%
    17:00 +13°C° 0 mm 6 m/S 757 mmHg 52%
    18:00 +13°C° 0 mm 5 m/S 757 mmHg 54%
    19:00 +12°C° 0 mm 5 m/S 757 mmHg 57%
    20:00 +10°C° 0 mm 5 m/S 757 mmHg 60%
    21:00 +10°C° 0 mm 5 m/S 758 mmHg 62%
    22:00 +10°C° 0 mm 5 m/S 758 mmHg 63%
    23:00 +10°C° 0 mm 6 m/S 758 mmHg 65%

    Morgen, 6 Juni, Samstag

    Zeit Temperatur Niederschläge Wind Luftdruck Luftfeuchtigkeit
    00:00 +9°C° 0 mm 6 m/S 758 mmHg 68%
    01:00 +9°C° 0 mm 6 m/S 758 mmHg 71%
    02:00 +9°C° 0 mm 6 m/S 758 mmHg 73%
    03:00 +9°C° 0 mm 5 m/S 757 mmHg 74%
    04:00 +9°C° 0 mm 5 m/S 757 mmHg 75%
    05:00 +8°C° 0 mm 5 m/S 757 mmHg 76%
    06:00 +8°C° 0 mm 5 m/S 757 mmHg 75%
    07:00 +8°C° 0 mm 5 m/S 757 mmHg 74%
    08:00 +8°C° 0 mm 5 m/S 757 mmHg 73%
    09:00 +10°C° 0 mm 6 m/S 757 mmHg 66%
    10:00 +11°C° 0 mm 7 m/S 756 mmHg 59%
    11:00 +14°C° 0 mm 7 m/S 756 mmHg 52%
    12:00 +15°C° 0 mm 7 m/S 756 mmHg 52%
    13:00 +15°C° 0 mm 8 m/S 755 mmHg 53%
    14:00 +16°C° 0 mm 8 m/S 754 mmHg 53%
    15:00 +15°C° 0 mm 7 m/S 754 mmHg 61%
    16:00 +14°C° 0 mm 6 m/S 754 mmHg 69%
    17:00 +14°C° 0 mm 5 m/S 754 mmHg 77%
    18:00 +13°C° 0 mm 5 m/S 754 mmHg 80%
    19:00 +13°C° 0 mm 6 m/S 755 mmHg 84%
    20:00 +13°C° 0 mm 6 m/S 755 mmHg 87%
    21:00 +11°C° 0 mm 6 m/S 755 mmHg 88%
    22:00 +11°C° 0 mm 6 m/S 756 mmHg 89%
    23:00 +12°C° 0 mm 5 m/S 756 mmHg 89%

    übermorgen, 7 Juni, Sonntag

    Zeit Temperatur Niederschläge Wind Luftdruck Luftfeuchtigkeit
    00:00 +10°C° 0 mm 5 m/S 756 mmHg 86%
    01:00 +11°C° 0 mm 4 m/S 756 mmHg 82%
    02:00 +10°C° 0 mm 3 m/S 757 mmHg 78%
    03:00 +10°C° 0 mm 3 m/S 757 mmHg 76%
    04:00 +10°C° 0 mm 3 m/S 757 mmHg 73%
    05:00 +10°C° 0 mm 3 m/S 757 mmHg 71%
    06:00 +10°C° 0 mm 3 m/S 757 mmHg 71%
    07:00 +9°C° 0 mm 2 m/S 757 mmHg 71%
    08:00 +10°C° 0 mm 1 m/S 758 mmHg 70%
    09:00 +12°C° 0 mm 2 m/S 758 mmHg 63%
    10:00 +13°C° 0 mm 2 m/S 758 mmHg 56%
    11:00 +15°C° 0 mm 2 m/S 759 mmHg 49%
    12:00 +15°C° 0 mm 2 m/S 758 mmHg 47%
    13:00 +16°C° 0 mm 2 m/S 758 mmHg 46%
    14:00 +16°C° 0 mm 2 m/S 757 mmHg 44%
    15:00 +15°C° 0 mm 2 m/S 757 mmHg 49%
    16:00 +14°C° 0 mm 2 m/S 757 mmHg 53%
    17:00 +13°C° 0 mm 2 m/S 757 mmHg 58%
    18:00 +13°C° 0 mm 2 m/S 757 mmHg 61%
    19:00 +12°C° 0 mm 2 m/S 756 mmHg 64%
    20:00 +12°C° 0 mm 2 m/S 756 mmHg 67%
    21:00 +12°C° 0 mm 2 m/S 756 mmHg 66%
    22:00 +10°C° 0 mm 3 m/S 756 mmHg 65%
    23:00 +10°C° 0 mm 3 m/S 756 mmHg 64%

    8 Juni, Montag

    Zeit Temperatur Niederschläge Wind Luftdruck Luftfeuchtigkeit
    00:00 +10°C° 0 mm 3 m/S 756 mmHg 63%
    01:00 +10°C° 0 mm 3 m/S 755 mmHg 62%
    02:00 +10°C° 0 mm 3 m/S 755 mmHg 61%
    03:00 +9°C° 0 mm 3 m/S 755 mmHg 61%
    04:00 +9°C° 0 mm 3 m/S 755 mmHg 61%
    05:00 +8°C° 0 mm 3 m/S 754 mmHg 62%
    06:00 +7°C° 0 mm 4 m/S 754 mmHg 60%
    07:00 +7°C° 0 mm 4 m/S 754 mmHg 59%
    08:00 +7°C° 0 mm 4 m/S 754 mmHg 58%
    09:00 +10°C° 0 mm 4 m/S 754 mmHg 52%
    10:00 +12°C° 0 mm 5 m/S 754 mmHg 46%
    11:00 +14°C° 0 mm 6 m/S 754 mmHg 40%
    12:00 +14°C° 0 mm 7 m/S 754 mmHg 38%
    13:00 +15°C° 0 mm 9 m/S 753 mmHg 36%
    14:00 +16°C° 0 mm 10 m/S 752 mmHg 33%
    15:00 +15°C° 0 mm 9 m/S 752 mmHg 36%
    16:00 +13°C° 0 mm 8 m/S 752 mmHg 38%
    17:00 +12°C° 0 mm 7 m/S 752 mmHg 41%
    18:00 +10°C° 0.3 mm 8 m/S 753 mmHg 51%
    19:00 +8°C° 0.3 mm 9 m/S 753 mmHg 61%
    20:00 +6°C° 0.3 mm 10 m/S 754 mmHg 71%
    21:00 +6°C° 0 mm 8 m/S 754 mmHg 68%
    22:00 +7°C° 0 mm 6 m/S 755 mmHg 65%
    23:00 +7°C° 0 mm 4 m/S 755 mmHg 63%

    9 Juni, Dienstag

    Zeit Temperatur Niederschläge Wind Luftdruck Luftfeuchtigkeit
    00:00 +7°C° 0 mm 4 m/S 755 mmHg 61%
    01:00 +7°C° 0 mm 4 m/S 755 mmHg 59%
    02:00 +6°C° 0 mm 4 m/S 755 mmHg 57%
    03:00 +6°C° 0 mm 4 m/S 755 mmHg 56%
    04:00 +5°C° 0 mm 5 m/S 755 mmHg 56%
    05:00 +5°C° 0 mm 5 m/S 754 mmHg 55%
    06:00 +5°C° 0 mm 5 m/S 754 mmHg 55%
    07:00 +5°C° 0 mm 5 m/S 753 mmHg 56%
    08:00 +3°C° 0 mm 6 m/S 753 mmHg 56%
    09:00 +5°C° 0 mm 7 m/S 753 mmHg 51%
    10:00 +7°C° 0 mm 9 m/S 752 mmHg 46%
    11:00 +9°C° 0 mm 10 m/S 752 mmHg 40%
    12:00 +10°C° 0 mm 12 m/S 751 mmHg 38%
    13:00 +12°C° 0 mm 13 m/S 750 mmHg 36%
    14:00 +13°C° 0 mm 14 m/S 749 mmHg 34%
    15:00 +12°C° 0 mm 13 m/S 749 mmHg 35%
    16:00 +12°C° 0 mm 12 m/S 748 mmHg 37%
    17:00 +11°C° 0 mm 11 m/S 748 mmHg 39%
    18:00 +11°C° 0 mm 10 m/S 748 mmHg 42%
    19:00 +11°C° 0 mm 10 m/S 748 mmHg 46%
    20:00 +11°C° 0 mm 9 m/S 748 mmHg 49%
    21:00 +10°C° 0 mm 8 m/S 748 mmHg 49%
    22:00 +10°C° 0 mm 7 m/S 748 mmHg 48%
    23:00 +9°C° 0 mm 6 m/S 749 mmHg 48%

    10 Juni, Mittwoch

    Zeit Temperatur Niederschläge Wind Luftdruck Luftfeuchtigkeit
    00:00 +9°C° 0 mm 6 m/S 749 mmHg 47%
    01:00 +8°C° 0 mm 6 m/S 749 mmHg 47%
    02:00 +8°C° 0 mm 6 m/S 750 mmHg 46%
    03:00 +7°C° 0 mm 6 m/S 750 mmHg 48%
    04:00 +7°C° 0 mm 5 m/S 750 mmHg 50%
    05:00 +6°C° 0 mm 5 m/S 750 mmHg 53%
    06:00 +6°C° 0 mm 5 m/S 750 mmHg 54%
    07:00 +6°C° 0 mm 5 m/S 750 mmHg 55%
    08:00 +6°C° 0 mm 5 m/S 751 mmHg 57%
    09:00 +8°C° 0 mm 6 m/S 751 mmHg 50%
    10:00 +9°C° 0 mm 7 m/S 751 mmHg 43%
    11:00 +11°C° 0 mm 8 m/S 751 mmHg 35%
    12:00 +12°C° 0 mm 7 m/S 751 mmHg 34%
    13:00 +12°C° 0 mm 7 m/S 751 mmHg 32%
    14:00 +12°C° 0 mm 7 m/S 750 mmHg 31%
    15:00 +12°C° 0 mm 5 m/S 750 mmHg 35%
    16:00 +11°C° 0 mm 4 m/S 750 mmHg 40%
    17:00 +10°C° 0 mm 2 m/S 750 mmHg 44%
    18:00 +10°C° 0 mm 3 m/S 750 mmHg 49%
    19:00 +9°C° 0 mm 5 m/S 750 mmHg 54%
    20:00 +9°C° 0 mm 6 m/S 750 mmHg 59%
    21:00 +9°C° 0 mm 6 m/S 749 mmHg 61%
    22:00 +9°C° 0 mm 6 m/S 749 mmHg 63%
    23:00 +9°C° 0 mm 6 m/S 749 mmHg 65%
    Mehr zeigen